Theta_e
326 330 331 331 330 329 329 328 329 330 329 329 327 327 329 330 331 330 330 328 322 324 328 324 322 322 321 321 321 322 321 322 324 322 321 320 319 319 318 317 316 315 314 312 312 313 316 319 324 327 329 329 329 329 329 329 328 328 327 326 326 327 327 327 327 327 328 329 329 328 329 329 329 330 330 328 327 326 326 325 325 324 324 325 324 322
325 330 330 328 329 328 328 328 329 329 327 328 329 328 329 329 331 330 329 328 321 324 330 326 324 324 322 321 322 322 321 322 323 322 321 320 320 319 318 318 317 315 314 313 312 311 313 316 320 325 327 329 329 329 329 329 328 328 328 327 326 326 327 327 327 327 327 328 328 328 328 328 329 329 329 328 327 327 326 326 325 325 325 325 325 323
324 327 328 328 329 329 329 329 329 329 327 329 330 329 329 329 329 331 332 327 320 324 331 328 325 325 323 321 321 321 321 322 321 320 321 321 320 319 318 317 316 316 315 314 313 311 311 314 317 322 325 327 328 329 329 329 329 328 328 327 327 327 327 327 327 327 327 327 328 328 328 328 328 328 328 327 327 326 326 326 325 325 325 325 325 324
322 324 326 328 330 330 329 329 329 329 328 329 330 330 331 330 329 333 334 327 320 322 326 325 324 322 322 321 320 321 320 320 320 320 320 320 320 319 318 318 317 316 316 315 315 312 310 311 315 320 323 326 327 328 329 329 329 328 328 328 327 327 327 327 328 327 327 327 327 327 327 327 327 327 327 326 326 326 326 326 325 325 324 325 325 324
322 324 326 327 329 330 329 330 330 331 330 329 329 330 331 330 330 333 332 324 322 323 319 321 326 326 326 327 324 323 322 319 319 319 319 319 318 318 318 318 318 317 317 316 317 316 312 310 313 317 320 323 326 327 328 329 329 329 329 328 328 328 327 327 328 328 327 327 326 326 326 326 326 326 326 325 325 325 325 326 325 325 324 324 325 325
322 323 325 326 328 328 329 329 329 330 331 330 330 329 329 330 331 331 327 324 331 334 323 321 331 334 334 333 327 325 325 322 320 319 320 319 317 318 318 317 317 317 317 317 317 317 313 311 311 314 317 321 324 326 326 327 328 329 329 329 328 328 327 327 328 328 327 326 326 326 325 325 325 325 325 325 325 326 326 326 326 325 324 324 325 325
323 321 323 326 328 328 328 329 328 328 331 331 330 329 328 330 331 330 327 327 334 336 325 321 330 335 333 332 331 331 330 327 325 322 321 319 317 318 318 317 318 317 317 318 317 316 314 312 311 312 314 318 321 322 324 326 327 328 329 329 328 328 328 327 327 327 327 327 326 326 326 326 326 325 325 326 326 327 327 327 326 326 325 324 324 324
324 322 323 325 327 328 328 329 327 327 330 331 330 331 330 329 330 330 329 330 332 330 325 322 326 331 330 329 331 333 332 329 327 325 323 322 320 319 318 317 317 318 318 319 319 318 317 314 312 312 313 316 318 320 322 325 326 327 328 329 329 328 328 327 327 327 327 327 327 326 326 326 326 326 326 327 327 327 327 327 327 326 326 325 324 324
322 322 322 322 326 328 328 329 327 326 329 330 330 332 331 329 330 330 330 330 327 328 329 325 324 330 332 330 328 327 328 327 326 326 324 323 323 322 321 319 317 317 317 317 319 319 317 314 313 314 314 315 316 318 321 323 324 326 327 328 329 329 328 328 327 327 327 327 327 327 326 326 326 326 326 327 327 327 327 326 327 326 326 326 325 324
322 322 321 321 324 326 326 328 327 326 328 327 326 328 328 329 329 329 330 329 325 328 332 329 326 330 334 332 329 325 327 327 325 324 323 322 323 322 322 322 320 319 317 316 317 316 314 313 315 315 314 315 315 317 319 321 323 325 326 327 328 329 329 328 328 327 327 327 327 326 326 326 326 326 326 326 326 326 326 326 326 326 326 326 325 325
324 323 321 321 323 323 325 327 327 327 327 326 328 328 327 328 328 327 328 328 328 330 332 329 327 329 333 333 329 326 328 330 326 324 324 322 322 322 321 321 321 321 320 319 317 315 311 311 313 314 314 315 315 316 318 320 322 324 326 327 328 328 328 329 328 328 327 327 327 327 327 327 326 326 326 326 326 326 326 326 326 326 326 326 326 326
324 324 325 325 325 325 327 327 325 326 327 328 331 331 329 328 327 327 327 328 331 333 331 330 327 327 331 332 330 331 330 329 327 327 328 326 324 323 322 322 320 320 321 320 319 317 313 312 312 310 312 313 313 315 316 319 321 323 325 326 327 328 328 329 329 328 328 327 327 327 327 327 327 326 326 326 326 326 326 326 326 326 326 326 326 326
323 324 326 326 326 327 328 327 325 325 327 329 331 330 330 330 330 331 330 330 332 332 331 331 329 327 329 328 330 333 330 328 327 325 327 328 326 324 323 322 321 321 320 319 319 317 316 317 312 308 309 310 311 313 315 317 320 322 324 325 326 327 328 328 328 328 328 327 327 327 327 327 327 327 327 327 326 326 326 326 326 325 325 326 325 325
324 324 324 325 326 326 326 327 327 326 326 328 329 329 330 331 332 333 333 332 331 330 329 328 328 329 329 327 327 326 325 327 326 323 323 324 324 321 320 320 320 320 319 318 317 316 318 318 311 307 309 309 310 312 313 316 319 321 323 325 326 326 327 328 328 329 328 328 328 328 327 327 327 327 327 327 327 327 327 326 326 326 326 326 326 326
325 325 324 325 326 326 325 325 326 328 327 326 328 328 328 330 332 332 333 333 331 329 327 325 326 330 331 328 325 323 323 325 325 324 323 320 319 318 317 317 318 318 317 317 317 316 316 313 308 307 309 309 310 311 312 314 317 320 323 324 325 326 326 327 328 328 329 328 329 328 328 328 327 327 327 327 327 327 327 327 327 326 326 326 326 326
324 326 326 324 325 325 325 324 325 328 328 327 328 328 327 329 330 329 328 328 329 330 328 326 328 331 328 323 320 321 323 325 327 327 326 323 320 318 318 317 316 315 314 315 316 316 315 310 306 307 308 308 311 311 311 313 316 319 321 323 324 325 326 326 327 328 328 329 329 328 328 328 327 327 327 327 327 327 327 327 327 327 327 327 327 326
323 325 327 325 325 325 324 324 324 326 327 326 328 328 327 329 330 330 326 323 325 329 330 329 329 329 326 322 321 321 322 324 328 328 327 326 324 320 319 317 316 316 315 314 314 313 313 309 305 306 306 307 310 311 312 312 314 317 319 322 324 324 325 326 327 328 328 328 328 328 328 328 328 327 328 328 328 327 327 327 328 328 327 327 327 327
325 326 326 325 326 325 323 324 324 324 326 326 328 327 325 328 329 329 328 326 325 327 329 329 327 326 325 326 325 323 322 322 325 326 324 323 323 320 319 317 316 316 315 314 313 312 311 309 305 304 306 308 310 311 313 313 313 316 318 320 322 323 325 326 326 327 328 328 328 328 328 328 328 328 328 328 328 328 328 327 328 328 328 328 328 327
324 326 326 325 326 326 324 325 325 325 323 323 325 325 325 329 329 326 328 329 329 328 330 329 326 324 324 324 324 324 325 323 321 322 322 320 319 319 319 318 318 319 318 316 314 312 311 309 304 303 306 308 310 311 311 312 312 315 317 319 321 323 323 325 325 326 327 327 327 328 328 328 328 328 328 328 328 328 328 328 328 328 328 328 328 328
323 324 325 324 324 325 325 324 326 327 324 321 323 324 325 327 328 327 327 330 332 330 329 329 327 327 324 320 319 321 325 327 325 322 322 320 319 318 318 318 318 320 321 319 316 314 314 309 303 302 306 308 310 310 309 310 311 313 316 319 321 322 323 324 325 325 326 326 327 327 327 328 328 328 328 328 328 328 328 328 328 328 328 328 328 328
323 321 323 323 322 324 325 324 325 326 325 324 324 326 326 325 326 329 328 328 330 328 329 328 327 328 325 320 320 319 321 326 329 326 322 321 320 318 318 318 319 319 319 320 318 316 316 310 300 300 304 305 307 307 307 308 309 311 315 318 320 321 322 323 324 325 325 326 326 326 327 327 327 327 327 327 328 328 328 327 328 328 327 327 327 327
323 322 322 324 324 325 325 323 323 324 324 324 324 325 327 326 326 329 329 328 326 326 329 329 327 327 324 324 323 320 318 320 323 323 321 320 320 319 319 319 320 319 317 319 318 316 319 313 302 300 303 303 304 305 307 308 308 309 312 315 319 321 322 323 323 324 325 325 325 326 326 326 326 326 326 327 327 327 327 327 327 327 327 327 327 327
324 324 322 323 324 325 325 323 321 322 323 324 324 324 325 326 326 328 329 327 325 326 327 327 327 326 323 327 326 320 318 317 317 319 318 318 318 318 319 319 321 321 317 315 314 316 318 308 299 298 301 304 305 305 306 307 308 309 309 312 316 319 321 322 323 323 324 324 325 325 325 326 325 326 326 326 326 326 327 327 327 327 327 326 327 327
322 323 322 322 323 323 323 322 320 318 320 324 326 325 325 326 326 325 327 327 326 327 326 327 328 326 322 327 326 321 322 318 316 317 317 316 316 317 318 319 321 323 321 316 312 313 311 302 299 301 301 303 306 306 306 307 308 309 309 309 312 315 317 320 322 323 323 324 324 324 325 325 325 325 325 325 325 325 326 326 326 326 326 326 326 326
319 321 321 321 321 321 321 322 321 319 319 322 324 324 324 325 325 325 326 327 327 327 327 328 329 326 324 327 324 323 325 321 317 318 317 317 317 316 317 318 318 319 321 318 313 311 311 312 314 311 302 302 307 308 308 308 308 309 309 309 310 311 313 315 317 320 321 322 323 323 324 324 324 324 324 325 325 325 325 326 326 326 326 326 326 326
318 320 320 320 319 319 319 320 320 320 321 322 322 323 324 324 325 326 326 326 326 327 326 327 327 325 323 325 323 322 323 319 318 319 318 318 318 318 318 317 317 317 317 316 313 312 315 319 322 315 302 301 307 309 309 310 309 310 309 309 310 310 310 311 313 316 318 320 321 322 322 323 323 323 324 324 325 325 325 325 325 326 326 325 325 326
320 321 320 318 317 316 316 317 320 322 324 323 322 323 324 324 324 325 326 326 326 327 326 325 325 325 323 323 322 321 321 320 319 320 319 318 318 319 318 315 315 316 315 314 314 314 317 318 321 320 306 300 304 307 308 310 310 310 311 310 310 310 309 310 310 312 315 318 320 321 321 322 322 323 323 323 324 324 324 324 324 325 325 325 325 325
321 320 319 319 317 316 315 316 322 325 324 323 323 324 324 324 323 325 326 325 325 326 327 325 324 325 324 322 322 322 323 322 319 319 319 318 317 317 316 315 316 318 316 316 316 319 322 319 321 324 311 299 302 305 306 308 309 308 309 309 310 310 310 310 309 309 311 313 315 318 319 321 321 322 322 322 322 322 322 322 323 323 323 324 324 324
320 318 318 319 318 318 317 317 321 324 323 323 324 323 324 324 324 324 324 324 324 326 326 324 324 325 323 322 321 321 321 321 321 320 318 317 316 315 315 316 318 319 319 321 321 320 322 320 321 324 314 301 300 304 304 306 307 307 307 307 307 309 309 310 310 309 310 310 311 312 314 316 318 319 320 321 321 321 321 320 321 321 321 321 322 323
318 318 317 318 318 318 318 318 319 321 322 323 323 322 323 324 324 324 323 323 323 324 324 324 325 324 322 321 321 320 320 320 321 320 316 315 316 316 317 318 320 320 319 320 320 318 319 318 315 316 313 302 299 301 304 305 306 307 307 307 307 307 307 308 309 309 309 309 309 310 310 311 312 314 315 316 317 317 317 317 317 317 317 318 318 319
315 318 317 317 317 317 317 317 318 319 319 320 321 322 322 322 323 324 324 324 323 324 324 323 325 324 322 320 320 322 324 322 320 320 317 316 317 317 318 319 320 320 317 316 315 314 316 315 311 313 315 307 301 301 304 305 307 307 306 307 307 307 307 308 308 308 308 308 308 309 309 309 310 311 311 312 312 313 313 313 314 315 315 316 317 318
313 315 316 316 317 316 316 317 317 317 318 318 319 320 320 320 321 321 323 324 324 324 324 324 324 324 322 321 321 323 324 321 319 318 318 318 318 318 319 319 318 318 315 314 313 313 314 314 312 313 313 305 300 302 306 306 306 306 307 308 308 308 308 308 308 308 308 308 308 308 308 309 309 309 309 309 310 311 312 313 314 315 316 316 317 318
314 315 315 316 317 317 316 316 316 316 317 318 318 318 319 319 320 321 321 322 322 323 324 325 324 322 321 322 322 322 321 320 318 317 318 320 320 319 317 316 316 315 314 313 312 312 312 312 310 307 304 302 302 306 308 307 307 307 308 308 309 309 309 309 309 309 308 308 308 308 308 309 309 308 308 309 310 311 312 313 313 314 315 315 316 316
314 315 315 315 316 317 316 316 316 316 317 319 318 316 316 317 318 320 321 321 321 321 321 322 321 321 321 321 321 321 321 321 320 318 318 318 319 319 317 314 312 312 312 312 311 310 310 310 306 301 300 302 304 307 307 307 307 308 308 308 309 309 309 309 309 309 308 308 308 309 310 310 310 308 308 309 310 310 311 311 311 311 312 312 313 313
314 314 315 315 316 316 315 316 317 317 319 321 318 315 315 315 316 317 318 319 320 321 321 321 321 321 321 320 321 320 320 320 321 321 320 319 318 318 318 316 314 312 311 311 311 310 310 310 306 301 300 303 305 306 306 306 307 308 307 307 308 309 309 309 308 308 308 308 308 309 309 309 309 308 308 309 309 308 308 307 307 307 307 307 309 310
313 314 315 315 316 316 316 316 317 318 319 319 319 318 316 316 316 316 317 316 316 318 320 320 320 320 320 320 320 319 321 322 322 321 320 319 317 316 317 317 316 314 313 312 314 313 310 308 306 303 302 304 305 305 306 307 307 308 307 306 306 307 308 308 307 307 308 308 308 308 307 308 308 308 308 308 307 306 305 304 304 304 304 305 306 307
310 313 314 315 316 316 316 316 316 317 318 317 321 323 319 316 317 317 317 316 314 314 316 318 319 319 319 320 320 320 322 323 322 320 319 318 316 316 317 317 317 318 316 312 311 310 308 306 306 305 305 305 306 306 306 306 307 306 305 305 304 305 306 306 306 307 308 308 308 308 306 306 307 307 307 306 306 304 303 302 302 302 303 304 305 306
307 310 312 314 315 316 316 316 316 317 317 315 320 324 321 316 316 316 316 316 316 316 316 317 318 319 319 320 320 320 322 322 321 320 319 319 318 317 318 318 318 318 316 311 309 309 309 309 307 307 307 306 306 306 306 306 305 305 304 304 303 304 304 304 305 307 307 308 308 307 307 306 306 307 306 304 304 303 302 302 302 302 302 303 304 306
306 307 309 312 314 315 316 316 316 317 317 318 321 323 322 320 319 319 319 319 317 318 319 318 319 320 320 320 320 321 321 322 322 320 320 324 324 320 319 319 318 316 312 310 310 310 311 312 310 308 307 305 305 308 307 306 305 304 303 302 303 302 301 303 306 308 309 309 308 307 307 306 305 305 305 303 303 303 302 302 303 303 302 302 303 304
307 307 308 310 312 313 314 316 316 316 318 322 323 321 320 319 319 320 321 320 319 320 320 319 319 319 319 319 321 322 321 321 321 319 322 329 328 322 318 317 317 316 313 310 311 311 311 312 310 307 305 304 307 309 308 306 304 303 302 303 302 300 301 305 308 309 309 308 307 306 306 306 305 304 304 303 303 302 302 303 303 303 303 303 302 303
307 308 309 309 311 312 313 314 315 316 320 324 322 319 318 318 318 320 320 321 323 324 321 319 319 319 319 320 320 320 319 319 319 318 321 325 324 320 317 314 312 312 311 310 311 311 310 310 309 307 306 307 308 308 306 305 303 301 302 302 300 300 304 308 309 308 307 306 306 306 305 305 304 304 303 302 302 301 301 302 303 303 304 304 304 303
309 309 309 310 310 311 313 314 315 316 319 321 318 315 316 318 321 321 320 318 319 319 318 319 319 319 319 320 321 320 318 318 319 317 317 318 318 318 317 314 310 310 310 309 310 309 308 307 307 306 306 307 307 305 305 304 302 301 301 300 300 304 307 308 307 306 305 305 305 305 304 303 303 302 302 301 300 300 301 302 303 304 304 304 303 303
310 310 310 311 311 312 313 314 314 315 316 316 315 314 315 320 324 322 319 318 316 313 313 315 316 316 317 317 318 319 318 318 319 317 316 317 317 316 316 315 313 311 308 307 307 307 306 305 304 304 306 307 305 304 304 303 300 301 300 299 303 307 307 306 305 304 304 304 303 303 303 302 301 301 300 300 299 300 301 302 302 303 303 303 302 301
310 311 313 313 312 313 313 313 317 321 318 314 316 318 316 319 322 320 317 317 315 312 313 312 312 314 314 313 314 315 316 317 317 315 314 314 314 315 314 314 313 311 308 306 306 307 306 304 303 304 306 306 304 303 303 302 301 300 299 302 306 306 304 303 303 303 302 302 302 301 301 300 300 299 299 299 300 300 301 301 301 300 300 300 300 299
310 313 315 314 314 315 314 314 318 321 318 314 315 320 319 318 318 316 314 313 314 315 315 312 310 311 310 308 311 313 313 314 313 312 312 311 311 311 312 312 310 308 307 305 305 306 306 304 303 304 304 305 305 303 302 302 301 299 300 304 306 304 302 302 302 301 301 301 300 299 299 299 299 299 299 299 299 300 300 300 299 298 298 298 298 298
309 311 311 311 315 315 313 313 313 313 316 317 316 317 317 316 315 312 311 312 314 315 314 310 309 311 309 306 307 309 310 311 310 309 309 308 307 308 309 309 307 304 304 303 303 304 304 303 302 301 301 303 304 303 302 302 301 300 302 304 304 302 302 302 300 300 300 299 298 298 297 297 298 298 299 299 299 300 300 299 299 298 297 296 297 297
309 310 308 309 313 312 311 314 313 309 311 316 317 315 314 314 314 313 311 312 312 311 311 309 308 310 310 307 307 308 308 309 309 308 307 306 306 306 306 307 307 305 303 303 302 303 303 301 299 298 298 300 303 302 301 300 300 301 302 302 301 300 300 300 299 298 298 297 297 297 296 297 297 297 298 298 299 299 299 299 299 298 296 296 295 295
308 308 309 311 312 311 311 314 312 308 308 311 313 313 313 313 315 315 312 312 311 309 309 309 308 308 310 310 309 308 308 308 308 308 307 306 305 305 304 305 306 304 301 300 300 301 301 299 298 298 298 299 302 302 300 299 299 299 299 299 300 300 299 298 298 297 296 296 296 296 296 297 297 296 297 297 297 297 297 297 297 297 297 297 297 296
305 306 309 311 310 311 311 310 308 307 309 310 310 312 313 313 314 314 312 310 309 309 309 309 309 309 309 310 309 308 307 308 307 307 307 306 304 304 304 305 304 301 299 299 299 298 298 298 297 298 298 299 301 301 299 298 298 297 297 298 299 299 298 297 296 296 296 295 295 295 295 296 296 296 295 295 295 296 296 296 297 296 297 298 300 300
304 306 309 309 309 310 309 309 310 309 309 310 311 313 316 314 313 314 314 312 310 310 310 310 309 309 308 308 308 308 308 308 307 307 307 305 304 304 303 304 302 298 296 297 297 296 296 296 296 296 296 297 298 298 298 297 296 296 296 297 297 297 297 296 295 295 295 295 294 294 295 294 294 295 295 294 294 294 294 294 295 296 297 298 299 300
306 308 308 307 308 307 305 308 312 309 307 308 309 311 315 314 313 313 314 313 312 310 307 307 308 308 307 307 307 307 308 308 307 306 306 305 304 302 300 300 300 299 296 295 295 294 294 294 294 293 294 295 296 295 295 294 294 294 295 295 296 296 296 295 294 294 294 294 294 294 294 294 294 294 294 293 293 292 292 291 291 292 295 296 297 298
Wind_Speed
0 3 5 7 9 10 10 10 7 2 3 7 7 5 6 6 4 4 4 4 2 3 5 8 8 12 17 12 8 7 4 5 10 12 13 11 9 9 10 12 13 12 12 17 23 24 20 22 26 27 28 28 29 30 31 32 34 36 35 35 36 36 35 35 35 35 35 35 34 33 33 34 35 35 35 36 35 35 34 33 33 33 32 31 30 28
1 4 8 8 7 7 8 7 5 0 2 5 5 5 5 6 5 5 5 3 2 2 4 5 6 11 16 14 9 6 4 7 12 14 14 14 11 9 11 15 14 11 10 12 17 20 19 20 23 25 27 28 28 31 33 34 35 36 36 37 37 37 37 37 37 37 37 37 36 35 35 36 36 36 37 37 37 37 36 35 35 35 34 33 32 30
2 5 8 6 4 4 5 6 5 3 1 2 3 4 4 3 2 4 4 2 1 3 3 4 5 9 13 14 10 7 7 9 13 15 14 13 12 11 12 13 12 11 10 10 13 16 17 19 22 24 26 28 31 33 34 35 35 36 37 39 38 37 38 39 39 39 39 39 38 37 36 35 36 36 37 38 37 36 36 37 36 36 35 34 33 32
4 5 6 5 6 6 5 6 7 3 2 3 2 3 3 2 2 4 4 2 2 2 1 2 5 7 9 13 12 10 10 11 14 15 12 10 12 15 14 12 12 12 12 11 12 13 14 16 19 22 25 29 31 33 32 33 34 36 38 40 39 39 40 40 41 41 41 39 38 37 36 34 33 34 34 35 36 36 36 37 37 37 36 35 35 33
10 6 2 4 7 8 6 6 8 6 4 4 4 5 4 3 6 5 2 2 2 2 1 2 7 8 7 11 13 9 8 10 12 12 11 11 13 14 13 12 13 12 11 12 13 12 10 14 19 23 26 28 31 33 33 34 36 38 40 41 41 40 40 41 41 42 40 38 35 34 32 30 29 30 30 30 33 35 36 37 37 38 37 36 36 35
13 10 1 1 4 8 8 6 7 7 5 6 6 8 6 5 7 6 1 2 3 4 2 1 4 7 4 8 12 6 4 8 8 8 11 12 12 11 12 14 13 11 11 12 14 12 9 14 20 23 26 28 30 34 36 37 39 40 41 41 40 40 41 42 41 41 40 38 37 34 32 30 29 28 30 32 33 34 36 37 37 37 37 37 36 36
7 10 7 3 4 8 9 6 7 8 6 6 5 7 6 6 6 5 3 1 1 4 3 1 3 7 4 5 8 6 6 8 8 8 10 11 11 10 11 12 10 10 12 11 12 12 11 15 18 20 26 29 32 37 37 37 39 41 40 39 40 41 41 42 41 40 40 40 39 38 38 37 34 33 34 36 36 36 36 36 36 37 37 37 37 37
5 11 11 9 6 6 7 7 9 11 7 4 4 8 8 6 6 4 3 2 2 3 3 1 2 5 8 6 7 8 10 11 10 11 12 12 13 11 11 12 11 12 12 10 11 12 13 17 19 22 27 31 35 37 35 36 39 40 40 40 40 41 42 41 40 40 41 42 41 40 40 39 39 38 37 36 35 36 36 35 35 36 36 37 37 37
8 13 15 16 10 6 7 6 7 11 7 3 4 7 7 6 5 4 4 2 1 2 3 3 1 3 9 6 4 6 11 12 11 13 14 14 14 13 11 13 12 12 11 10 11 12 12 16 21 26 29 31 34 35 35 38 40 40 41 41 40 40 41 40 40 40 42 43 42 41 40 39 39 40 37 34 34 35 35 34 35 34 35 36 36 37
4 11 15 16 12 10 12 6 8 12 6 3 4 5 4 4 4 4 4 3 2 0 7 7 5 4 10 6 3 3 7 10 9 10 12 13 14 13 11 12 12 10 9 10 11 11 13 17 22 25 27 30 32 34 35 37 38 39 39 39 40 40 41 40 41 41 42 43 42 41 40 40 39 37 35 33 32 32 32 33 34 34 34 35 35 36
1 3 8 10 10 11 9 5 7 10 6 3 4 6 5 4 4 3 2 3 2 4 11 12 10 7 9 4 4 4 4 7 8 7 9 12 14 13 11 11 11 8 7 8 9 10 14 19 22 22 24 29 31 31 32 34 35 36 36 36 39 41 40 40 41 42 43 43 43 43 42 42 40 37 33 33 33 32 32 33 34 34 34 34 35 36
0 4 5 5 4 5 6 5 2 5 7 5 4 4 2 1 1 2 2 2 3 6 10 10 10 10 9 5 3 4 5 4 6 7 9 12 13 12 10 10 9 7 7 7 7 8 10 14 17 18 22 27 28 28 30 33 34 34 35 35 36 39 39 38 38 41 42 42 43 44 44 43 41 38 35 35 35 34 34 34 34 33 33 34 35 35
3 3 3 1 0 6 8 5 2 3 6 4 4 5 3 2 2 3 3 3 4 7 8 4 7 8 10 12 10 9 8 7 8 9 10 12 13 12 10 8 7 6 7 7 7 8 7 8 10 13 19 23 25 27 30 32 33 33 34 35 36 38 39 37 37 38 41 42 43 45 44 44 42 39 38 38 37 36 35 35 34 33 34 34 35 35
3 3 3 1 1 6 9 8 5 4 8 8 7 7 6 4 3 4 4 2 3 8 8 3 6 2 7 11 13 14 13 13 12 10 11 12 13 13 10 8 8 8 8 8 7 8 8 8 10 13 17 20 23 27 29 31 32 32 33 34 36 38 38 37 38 39 40 42 44 45 44 44 42 40 39 39 39 38 36 35 35 35 35 36 36 37
7 5 6 9 5 8 12 12 7 5 7 10 7 6 6 5 4 4 3 3 5 6 5 2 5 4 5 4 6 9 9 10 10 7 9 11 11 11 11 9 10 11 10 9 8 9 9 10 13 15 17 19 22 26 28 29 31 31 32 34 36 38 37 36 37 39 40 43 44 44 44 44 42 40 40 40 41 39 37 36 35 35 36 36 37 36
8 5 6 11 7 11 16 11 6 6 5 6 4 5 7 6 4 1 1 2 4 3 3 2 3 5 5 6 8 8 7 7 8 7 8 12 13 11 10 11 11 10 10 9 9 10 11 12 16 18 19 21 22 24 26 29 30 31 33 34 36 38 37 36 38 40 42 43 43 43 43 43 41 40 40 40 41 40 38 37 37 37 37 36 36 35
7 4 6 8 5 12 18 11 8 8 5 4 5 7 7 4 6 2 2 1 1 2 4 3 4 5 5 11 13 11 11 10 9 10 10 12 15 12 10 12 11 9 10 9 9 10 10 10 15 19 21 22 22 23 26 29 31 33 34 34 35 37 35 35 38 40 41 40 40 40 41 41 40 40 41 42 42 40 38 37 37 37 37 36 36 35
5 4 3 8 8 11 11 7 5 6 4 4 6 7 3 4 3 2 2 1 0 4 3 3 9 8 4 8 7 5 12 13 11 13 14 13 13 11 10 11 10 9 10 9 8 10 9 9 13 17 21 23 24 24 26 29 30 30 32 33 34 35 35 36 37 39 40 40 39 40 40 41 41 42 43 43 43 40 37 37 38 37 37 37 36 34
3 2 3 7 11 6 6 6 3 6 2 2 3 5 5 1 2 3 3 3 2 4 3 4 9 8 7 10 8 5 9 10 12 14 15 14 13 12 12 12 10 10 10 9 8 9 8 9 12 16 20 24 24 25 26 26 24 26 29 31 33 35 36 35 36 37 39 39 39 39 40 40 41 41 42 42 41 38 36 38 38 38 38 37 34 33
2 3 4 4 6 5 5 6 7 7 5 2 2 2 3 3 4 4 5 3 3 5 4 5 6 5 7 12 13 12 9 8 11 12 13 16 16 14 13 11 9 9 8 8 8 8 8 9 13 18 21 23 23 23 23 23 22 25 27 29 32 33 33 32 34 36 37 37 38 38 38 39 39 40 41 41 39 37 37 39 38 38 38 36 33 33
1 2 3 1 2 5 4 6 12 13 10 6 4 4 4 3 1 1 3 2 2 4 4 5 7 7 6 5 8 12 10 11 13 12 13 15 15 14 12 9 8 8 8 9 8 8 9 9 13 17 19 20 19 19 19 20 22 24 25 27 30 31 31 31 33 34 36 37 37 38 38 39 39 40 40 39 37 36 38 38 38 37 36 34 33 33
3 3 4 2 2 5 5 7 9 8 9 10 9 8 10 8 4 2 4 2 2 3 4 3 8 11 7 4 7 11 10 11 14 14 13 13 14 14 11 8 8 8 9 10 9 9 8 8 11 14 15 16 17 18 18 19 21 23 25 27 28 29 31 32 33 34 35 35 36 37 38 38 38 38 37 37 36 36 37 37 37 36 34 33 33 33
3 1 3 3 2 5 5 3 2 4 0 7 9 8 8 8 7 7 8 5 3 5 5 2 5 13 9 6 8 9 9 11 13 13 13 12 12 14 11 7 7 8 9 10 9 8 7 8 11 12 13 13 15 17 18 18 19 22 24 25 26 28 30 32 32 32 33 33 34 36 37 37 36 36 35 35 36 36 37 37 37 35 34 34 34 33
2 2 3 4 3 4 5 6 5 5 4 4 7 6 6 8 10 9 6 3 4 5 5 3 5 13 11 6 8 8 8 9 10 10 12 12 10 11 12 9 7 8 9 9 8 8 7 8 9 9 9 11 13 14 15 17 19 20 21 23 25 27 29 29 29 30 30 31 33 34 34 35 35 34 34 35 35 36 36 36 36 34 34 34 33 33
4 4 5 6 5 4 4 4 6 3 2 3 7 10 11 12 13 7 1 2 4 7 9 7 7 12 10 2 4 7 9 9 9 8 9 9 9 10 11 10 8 7 8 9 8 8 7 8 7 7 8 10 12 13 14 16 18 18 20 21 23 25 25 25 26 27 29 30 31 32 32 33 33 33 34 36 36 36 35 35 34 34 34 33 33 33
5 5 7 9 9 8 8 8 8 7 6 3 5 11 15 15 15 11 6 7 9 9 11 9 8 13 14 8 7 8 7 8 8 8 8 7 8 10 10 11 10 7 7 8 8 7 7 7 7 7 8 11 13 14 15 16 17 18 19 19 20 21 21 21 23 25 27 28 29 30 31 32 32 33 35 35 35 35 34 33 32 33 33 32 32 32
3 4 8 10 13 12 12 11 7 4 5 4 5 11 15 16 17 14 9 9 10 9 10 11 11 15 21 22 19 11 5 7 9 8 9 9 9 11 11 11 10 7 7 7 6 6 6 7 8 8 9 11 13 14 16 17 18 19 19 20 20 19 19 19 20 22 24 26 28 29 30 31 32 33 33 33 33 33 32 31 31 31 31 31 30 30
3 5 10 12 16 16 16 15 6 3 7 10 10 15 16 15 17 16 13 13 11 9 11 13 13 16 23 27 25 14 7 8 9 9 10 10 9 10 10 9 9 8 8 7 6 6 7 8 9 8 9 12 13 15 17 19 20 20 21 21 20 20 21 21 20 21 23 24 26 29 30 30 30 30 30 30 30 30 29 29 29 29 28 28 28 29
4 7 10 13 16 18 20 16 6 2 6 9 12 17 17 16 18 18 19 19 15 12 13 14 14 17 22 26 26 16 8 8 9 11 11 9 8 8 8 9 10 9 8 8 8 8 8 10 11 9 9 10 12 15 18 20 21 21 22 23 21 22 22 21 21 22 22 23 25 26 26 26 26 26 26 27 27 27 27 26 25 25 25 25 25 26
3 7 11 12 15 18 21 18 10 7 7 7 10 14 15 17 19 20 20 21 21 19 16 14 17 18 18 24 25 12 5 8 9 9 9 7 7 8 8 10 11 10 9 10 10 9 10 11 11 9 7 7 11 15 18 20 21 22 24 23 22 22 22 21 22 23 23 25 25 24 22 21 21 22 22 23 23 22 22 21 21 20 20 21 21 21
4 8 10 10 11 15 18 17 14 14 14 13 12 10 10 12 15 17 19 18 19 20 19 19 21 18 16 22 20 4 5 7 9 8 8 7 7 8 9 10 11 13 13 11 10 9 10 10 10 8 7 9 14 17 18 21 21 21 23 23 22 21 21 20 22 23 25 26 25 23 21 20 20 19 19 19 18 18 18 17 17 17 17 17 17 17
5 6 6 6 8 12 15 17 17 16 16 17 17 13 10 10 11 13 15 16 18 19 20 21 19 16 17 18 13 6 6 11 10 10 8 7 7 8 10 12 13 16 16 11 9 9 10 11 11 10 9 12 16 18 21 22 21 21 24 25 23 20 20 21 22 23 23 23 23 22 21 21 20 19 18 18 17 17 18 17 18 18 18 17 17 16
7 6 6 6 6 9 15 17 14 12 12 13 15 16 17 17 16 15 15 16 18 17 15 15 15 16 18 13 11 16 19 15 9 8 7 8 9 10 12 14 14 15 14 10 9 11 12 11 10 10 12 16 20 23 25 25 23 23 27 26 22 19 20 21 22 22 21 21 20 20 20 20 19 19 19 19 19 19 19 19 19 19 18 18 17 16
9 9 8 7 5 9 15 11 6 8 9 6 9 17 23 24 22 20 16 14 15 13 12 12 14 16 18 16 17 23 24 15 8 8 8 9 10 10 13 14 13 13 12 9 10 11 10 8 9 13 19 22 24 26 25 24 24 25 25 23 21 21 21 22 22 22 21 20 19 19 18 18 19 19 19 20 20 19 20 19 19 19 19 18 18 18
10 11 8 6 6 9 11 7 6 8 7 6 10 17 22 23 24 22 20 18 16 15 15 17 18 20 22 21 19 22 24 15 7 8 10 11 11 12 13 14 12 11 11 11 12 12 10 9 10 15 20 24 25 25 24 24 25 25 23 21 21 23 23 23 23 23 22 21 20 20 19 19 19 20 20 21 20 20 20 20 19 19 19 18 19 19
8 9 8 8 7 6 7 8 8 5 3 5 8 9 11 15 17 18 20 23 22 19 18 19 20 22 22 21 21 22 19 10 5 7 11 13 14 13 13 13 11 9 10 12 12 13 13 14 16 19 21 22 24 24 26 27 27 26 25 22 21 23 24 23 23 23 23 23 23 23 22 21 21 22 22 22 22 21 21 20 19 19 18 17 18 18
5 5 6 8 8 7 8 10 7 7 7 6 5 4 8 13 15 16 17 19 20 19 18 16 18 21 21 22 25 20 7 5 7 12 16 16 14 11 11 11 9 9 11 14 17 20 22 20 21 23 24 24 25 27 28 28 26 25 25 23 21 22 22 23 24 25 26 26 26 26 25 25 25 25 25 24 23 23 21 19 18 17 18 18 18 18
5 4 3 4 5 7 10 10 8 9 10 10 9 9 10 13 17 17 14 13 13 15 18 18 20 22 22 24 24 11 1 3 11 16 17 14 11 10 11 12 11 12 14 17 20 23 27 26 23 25 27 26 28 31 29 27 26 26 25 24 23 23 22 24 26 27 28 29 29 28 28 27 28 27 27 26 25 24 22 19 18 17 18 19 19 19
5 3 2 2 2 4 8 10 10 8 7 8 11 9 8 9 9 8 8 10 11 12 16 18 19 20 21 23 16 4 3 5 12 13 10 5 10 13 13 14 15 16 19 23 22 21 28 31 26 24 24 24 29 33 30 28 28 26 26 26 26 23 23 26 29 31 31 32 31 29 29 29 29 29 28 27 26 25 22 21 19 17 17 19 20 20
5 4 3 4 4 4 5 6 7 6 5 6 7 6 4 7 9 7 5 8 8 8 11 14 17 20 21 17 8 4 6 10 12 10 3 4 6 10 11 13 16 15 18 24 26 27 31 31 24 19 21 27 34 36 32 29 27 26 28 29 26 24 27 31 34 34 33 31 29 29 29 29 30 30 29 28 27 24 22 21 20 19 18 19 20 20
3 3 4 5 6 6 6 4 3 3 4 6 6 4 2 7 8 5 8 4 2 4 4 7 13 13 12 8 4 5 9 11 11 11 6 4 6 7 7 12 15 15 17 22 27 30 29 28 25 24 28 33 35 32 29 28 27 28 30 28 25 28 35 38 37 34 31 29 29 29 29 30 30 30 28 27 25 23 21 21 20 21 21 20 20 20
4 3 3 4 4 4 4 3 3 4 6 7 5 2 1 4 4 6 5 2 3 2 3 1 3 2 2 3 5 7 9 8 10 12 10 10 10 9 10 11 11 14 18 20 23 25 22 22 25 27 32 36 32 28 28 28 28 29 28 25 28 37 43 40 35 32 30 29 29 29 29 29 29 28 26 24 23 22 22 21 21 21 22 21 20 20
5 4 3 4 4 3 2 3 3 4 5 6 6 2 2 5 5 4 1 0 1 3 4 2 1 3 3 4 5 7 7 8 10 10 10 10 10 10 11 12 11 12 14 15 21 24 20 19 21 25 33 36 29 27 28 28 28 28 25 26 36 44 42 37 34 31 30 30 29 29 29 29 28 27 25 23 23 23 23 23 22 22 22 21 21 20
4 5 3 3 3 3 4 6 6 5 5 6 7 5 6 6 5 4 3 1 2 1 1 1 4 6 6 5 7 6 6 8 9 9 10 10 11 10 11 12 11 12 12 14 21 25 21 18 21 26 33 34 28 25 27 29 29 26 25 32 41 40 35 34 32 30 29 29 29 29 29 28 27 26 25 24 24 24 24 23 23 22 21 21 21 21
4 4 4 3 3 4 5 6 5 2 2 4 5 5 5 3 3 5 5 1 3 3 2 2 6 8 5 5 6 6 5 7 8 9 9 10 11 11 11 12 13 14 15 17 22 25 22 22 24 26 30 33 31 26 27 31 31 27 29 38 40 35 34 34 31 30 30 29 29 28 28 27 26 26 25 25 25 26 25 25 23 22 21 21 22 21
3 3 3 2 2 4 5 7 5 1 3 5 6 5 3 3 3 3 3 3 5 5 4 4 6 9 6 3 4 5 6 7 9 9 10 10 11 11 10 11 14 15 16 17 21 24 22 22 23 23 24 30 33 29 30 33 33 32 36 38 34 31 33 33 31 30 30 28 28 28 27 26 26 26 25 25 25 26 26 26 25 24 22 22 22 21
3 2 2 2 2 2 4 6 5 3 3 5 6 5 4 5 5 3 3 6 6 6 5 5 5 7 8 5 5 6 8 8 8 9 9 9 10 11 10 11 13 13 14 15 20 24 21 17 17 17 18 26 32 32 31 32 34 36 35 29 26 28 30 31 30 29 28 27 27 27 27 28 28 27 26 26 26 25 25 25 25 25 24 24 23 21
2 1 2 3 4 4 6 7 4 3 5 6 5 5 5 6 7 7 7 8 7 6 6 6 5 5 7 7 7 7 7 8 9 9 9 9 9 9 10 11 12 13 15 17 19 22 19 15 15 16 17 23 30 30 28 29 33 34 29 24 24 26 28 29 29 28 27 28 27 27 28 29 28 28 27 26 26 25 24 25 26 26 26 26 25 23
1 1 2 2 2 5 8 7 2 3 7 7 6 7 7 7 8 10 10 9 7 7 6 7 6 6 7 9 9 7 7 9 9 8 9 9 9 9 10 11 12 13 16 19 20 20 18 17 18 18 20 25 27 25 24 28 30 28 26 24 24 25 27 28 27 25 25 26 26 26 27 27 27 27 27 25 24 23 23 23 25 25 24 24 25 24
2 2 2 1 2 6 8 5 3 3 6 6 5 7 8 7 7 8 10 9 8 7 7 7 8 7 7 8 8 7 8 9 8 8 9 9 9 10 11 12 11 12 16 20 21 21 20 20 20 19 21 24 23 20 21 24 24 23 24 24 23 25 27 26 24 23 23 24 24 25 26 26 26 26 26 26 24 22 20 19 20 22 22 22 23 23
5 5 5 4 6 9 8 4 4 3 6 7 6 6 7 5 5 6 8 9 9 9 6 6 8 10 11 10 7 7 8 10 9 8 9 10 9 10 11 12 10 11 15 18 16 16 19 20 19 18 19 20 19 17 18 18 19 20 21 22 23 25 27 26 24 22 22 24 24 25 26 25 25 26 26 25 25 24 21 17 15 16 18 20 21 21
Wind_Direction
110 187 195 201 201 198 196 200 198 89 113 148 153 185 194 202 237 239 251 289 190 191 240 229 226 251 260 260 254 259 249 251 264 262 261 258 253 255 258 261 257 253 256 260 262 261 252 244 241 236 232 231 229 230 230 228 226 226 226 225 226 227 228 227 225 225 224 223 223 224 226 228 231 234 235 238 241 242 244 245 245 245 244 245 246 246
341 220 217 213 204 198 193 189 198 223 120 140 155 187 205 210 236 245 238 307 44 195 265 254 238 253 262 265 260 244 216 233 248 251 257 258 255 252 252 258 260 259 263 265 265 262 251 242 238 234 230 226 225 228 228 226 226 226 225 225 225 225 226 227 226 225 225 224 224 225 226 229 231 234 235 238 241 243 245 246 245 245 244 245 246 246
283 268 246 216 172 171 172 160 180 217 178 168 151 168 217 216 251 282 257 273 112 188 259 276 256 256 263 268 263 239 221 231 241 243 248 254 258 254 249 254 259 259 261 259 260 258 248 239 235 230 226 224 226 229 228 226 226 225 224 225 224 224 224 226 227 226 226 227 228 229 231 233 234 236 239 241 244 245 246 247 246 246 245 246 246 246
218 270 256 198 153 138 141 149 170 195 211 210 170 175 224 160 153 269 274 266 228 200 241 305 293 271 266 277 268 235 223 233 243 246 248 247 250 253 250 252 253 251 253 256 258 255 245 237 232 226 224 224 226 228 227 224 224 224 225 225 223 223 224 225 226 227 227 229 230 231 233 235 236 238 240 241 242 243 244 245 246 246 246 247 246 246
204 222 245 184 162 140 147 166 177 197 221 220 205 205 215 162 188 226 259 314 322 320 354 7 305 277 238 258 265 238 216 237 245 248 254 247 243 253 258 254 250 248 248 252 256 254 239 231 232 228 226 225 223 225 225 224 224 225 226 226 224 223 223 224 225 226 226 225 226 227 228 231 234 236 237 237 238 238 240 242 244 245 245 246 247 247
213 207 159 140 161 149 163 182 184 189 210 229 220 207 199 182 205 220 181 21 352 318 321 83 282 282 224 235 261 264 234 249 250 244 251 253 248 250 256 254 251 250 247 245 252 254 240 232 234 232 229 225 223 226 227 226 227 228 228 227 224 223 223 224 224 224 223 221 221 220 219 222 225 229 231 232 235 236 238 241 243 244 245 245 247 248
215 194 177 173 179 172 178 195 190 176 196 237 206 174 178 183 200 203 160 116 284 270 299 89 219 273 283 241 252 269 267 261 260 251 249 255 255 243 246 253 249 247 246 241 246 249 243 237 233 232 230 225 226 230 229 227 228 229 228 226 225 224 223 223 222 221 220 219 219 219 220 222 223 226 230 233 235 238 241 243 244 244 246 246 247 248
164 176 190 193 196 195 191 203 191 170 185 239 149 149 171 181 187 177 141 172 259 292 314 26 156 270 279 249 222 237 257 260 260 261 258 255 255 246 242 249 245 242 243 239 241 241 239 238 233 233 234 230 232 234 229 226 228 228 227 226 225 225 224 222 220 219 218 218 218 219 221 223 225 228 232 235 236 239 241 242 244 245 246 247 248 248
143 170 194 194 195 215 216 213 172 161 185 236 150 153 173 170 164 141 118 155 348 10 288 256 151 264 273 262 217 230 249 254 250 251 255 257 258 254 246 246 245 241 240 236 239 239 237 237 235 236 238 238 238 235 230 228 229 228 227 226 225 225 224 221 219 218 218 219 219 219 220 223 227 230 233 236 237 239 239 240 242 243 245 247 248 249
162 186 188 186 192 213 216 197 152 165 193 225 136 102 94 106 103 116 130 135 109 240 249 233 174 230 270 263 192 218 247 250 249 246 252 258 259 259 255 255 252 243 238 236 238 242 243 241 241 242 243 243 241 238 234 232 230 228 226 224 223 224 223 221 219 218 218 218 218 219 221 224 227 229 231 233 236 237 237 238 239 241 243 244 246 248
325 164 166 185 201 206 198 148 152 173 166 136 106 72 56 59 57 72 110 111 134 246 250 229 183 198 269 266 170 197 225 221 230 245 254 257 259 261 260 259 258 249 242 238 241 246 247 248 247 246 245 245 244 240 236 234 231 228 226 224 223 224 223 221 219 217 218 218 217 220 222 224 227 227 227 229 231 233 233 235 237 238 241 243 245 247
298 120 152 208 208 159 123 92 105 143 131 116 97 98 96 34 55 62 70 127 191 240 252 230 182 186 241 263 193 237 267 234 223 234 245 253 261 262 256 258 260 256 253 248 245 248 248 252 250 243 242 244 243 239 235 233 231 228 226 224 224 225 224 221 219 217 217 217 218 221 223 225 227 226 225 227 229 230 230 233 235 236 239 241 244 245
210 178 168 7 155 153 135 120 76 105 141 148 126 143 177 208 209 193 189 186 204 243 256 208 161 188 237 256 252 256 270 260 238 231 238 250 260 263 260 265 270 263 257 252 248 250 246 247 246 237 237 241 239 236 234 233 230 227 226 223 223 225 224 221 219 217 217 217 219 222 223 225 226 226 226 228 230 230 231 233 233 233 236 238 240 241
184 228 201 128 220 181 162 164 179 175 177 182 173 178 189 191 214 214 202 185 199 246 261 169 138 210 262 260 255 250 249 246 242 235 237 248 261 269 271 271 272 268 257 249 245 245 242 239 240 237 237 238 237 236 235 233 231 227 225 223 222 226 225 220 218 218 218 219 221 223 223 225 225 225 226 228 230 231 231 232 233 234 235 236 239 240
191 228 193 186 186 170 186 195 183 146 168 192 186 174 193 200 211 216 208 209 211 242 270 144 136 210 232 248 251 242 248 257 261 261 258 263 265 267 271 269 264 264 258 252 249 246 243 240 242 244 241 238 237 238 236 233 231 227 225 223 222 225 224 220 218 218 218 220 222 223 224 225 225 225 227 229 231 232 232 232 233 235 236 238 240 242
203 243 191 190 170 162 193 203 149 118 159 196 150 149 211 207 170 218 281 221 213 250 267 198 195 228 241 287 279 254 271 285 280 276 271 271 267 258 264 266 259 258 258 254 252 251 247 242 242 244 242 238 236 238 236 234 230 226 225 224 223 225 224 219 218 219 220 222 223 223 224 225 225 225 227 230 232 232 232 232 234 236 237 239 242 243
197 236 192 181 170 182 196 191 165 172 171 166 167 182 211 175 132 165 279 333 77 256 241 204 246 276 294 287 271 248 248 257 265 267 252 252 261 258 255 259 257 256 257 252 249 252 252 245 243 241 239 236 234 234 235 235 232 228 226 224 223 225 223 220 220 220 220 222 223 224 225 225 225 226 227 230 232 233 232 233 234 236 238 240 242 243
185 232 207 172 193 207 192 159 189 212 141 125 196 188 119 60 92 143 233 319 63 240 253 231 241 253 258 273 288 252 234 233 235 250 250 248 258 262 255 255 256 256 259 261 258 256 257 252 246 243 241 239 237 237 238 238 235 231 228 226 225 225 223 221 221 220 221 222 223 224 225 226 226 227 229 231 233 233 232 233 234 235 237 239 240 241
169 238 270 193 195 194 121 123 233 261 177 121 219 167 116 143 196 160 196 223 218 234 269 248 238 240 228 243 267 257 228 224 230 243 255 260 259 260 258 254 252 255 261 264 261 259 257 251 245 240 241 243 242 241 241 239 236 233 231 229 228 228 227 224 222 221 222 222 223 225 226 227 227 228 230 232 233 232 231 234 235 235 238 239 239 240
130 192 269 237 190 155 119 156 202 222 206 213 271 166 137 215 196 172 201 204 204 233 254 257 245 237 231 235 246 247 223 207 227 239 249 254 252 252 254 253 250 251 257 260 259 259 257 252 249 242 239 243 245 244 242 238 235 233 233 230 229 230 229 226 224 223 223 223 224 226 227 228 229 229 231 232 232 231 232 235 236 236 238 238 238 239
104 199 245 313 144 155 176 201 200 203 195 190 216 185 170 209 150 172 229 152 160 228 240 262 260 253 244 220 224 236 219 201 217 227 237 247 252 255 256 256 255 252 256 260 256 257 261 261 257 252 246 247 248 247 243 237 233 233 232 230 230 230 228 226 226 225 225 225 225 226 228 229 230 230 231 232 231 231 233 236 236 237 238 238 238 240
183 203 205 195 158 183 214 215 209 214 198 190 203 196 191 192 165 209 230 158 138 217 197 220 260 265 257 185 198 221 213 207 217 224 236 246 252 259 260 251 251 252 251 253 251 252 258 260 259 260 259 254 248 243 238 233 231 230 229 230 230 229 228 228 227 226 227 227 226 227 229 230 231 232 232 232 232 232 234 236 237 237 237 238 239 240
150 126 209 229 228 222 239 255 353 11 321 215 218 207 203 197 181 205 220 195 178 206 194 168 265 271 258 190 199 222 212 214 220 221 234 245 250 261 267 256 249 253 253 255 262 263 260 261 266 272 270 259 246 241 237 231 229 229 229 229 228 229 230 230 229 229 229 228 229 230 231 232 232 233 233 233 233 234 235 237 238 238 238 238 240 241
126 106 207 241 258 253 275 301 324 15 41 252 235 210 204 202 199 211 215 189 178 192 199 194 247 267 261 194 191 219 219 228 232 224 232 244 253 263 269 262 245 248 259 262 265 267 265 268 274 275 267 253 242 238 234 230 230 230 231 229 228 230 232 231 231 231 231 230 232 233 233 233 233 233 233 234 235 236 237 238 239 239 239 240 241 241
184 171 194 224 241 244 254 267 267 248 170 222 229 215 212 207 207 220 228 210 219 198 196 207 233 255 260 186 173 217 226 240 246 241 242 246 256 266 272 270 256 249 267 275 277 279 274 270 270 263 253 245 238 232 228 227 229 230 230 230 230 232 233 233 232 232 232 232 233 234 233 234 233 233 234 235 236 237 238 239 239 240 241 241 241 241
186 184 192 209 220 224 223 219 223 224 211 214 227 220 218 209 203 210 215 218 226 210 199 207 231 251 264 275 255 230 230 254 260 262 263 253 253 263 266 269 270 264 265 275 285 289 281 271 264 255 246 239 234 230 226 227 228 230 232 232 233 235 235 234 233 232 232 232 232 233 233 233 233 233 234 236 237 238 239 239 240 240 241 240 240 240
151 202 203 212 222 225 231 230 215 188 187 187 209 219 221 216 208 213 220 218 222 223 220 217 223 248 263 264 257 242 212 246 256 257 262 255 251 256 256 262 274 274 264 267 276 284 282 271 262 255 246 239 237 236 233 233 234 234 235 235 234 235 234 233 231 230 230 230 230 231 233 233 233 234 235 236 237 238 238 239 239 239 239 239 239 240
131 222 214 220 232 234 241 244 228 174 202 200 204 215 219 216 212 217 224 223 220 225 235 226 213 236 255 258 257 250 205 221 245 245 249 250 247 253 265 278 283 276 272 270 262 260 260 259 258 254 246 239 237 240 239 240 241 240 240 240 236 234 233 231 229 229 228 228 229 230 231 232 233 234 235 235 236 237 237 237 237 237 238 238 237 237
176 230 219 223 236 239 244 246 234 209 223 207 208 216 216 212 212 217 224 226 223 224 235 232 216 227 248 258 262 258 215 205 226 232 238 248 259 272 287 289 280 272 273 270 255 241 236 243 245 242 241 237 236 241 242 241 242 241 241 240 237 234 233 231 231 231 231 230 230 231 232 232 233 233 234 234 234 235 235 236 236 236 235 235 235 236
189 225 224 227 239 243 244 243 232 227 238 230 221 219 216 214 214 218 224 227 231 235 241 247 242 238 245 257 265 264 192 199 223 236 246 257 269 278 279 276 275 273 265 255 247 236 232 238 242 244 250 245 239 242 242 240 240 239 240 239 237 236 234 232 232 233 232 232 233 233 232 231 231 231 231 231 231 232 232 232 232 232 231 233 234 235
189 220 224 225 240 248 248 246 238 232 236 240 236 229 227 227 223 223 225 226 232 238 239 243 251 251 246 254 266 275 143 206 237 244 246 250 254 260 266 269 271 270 261 249 243 241 239 243 247 248 246 238 237 239 239 240 239 238 240 238 235 236 234 230 230 230 231 233 233 232 230 228 227 226 225 225 224 222 223 222 221 222 223 225 226 226
181 222 232 221 235 245 242 242 239 236 239 242 239 236 235 237 233 227 224 221 221 227 231 234 243 249 247 255 277 298 231 228 237 238 238 248 247 244 253 255 254 259 260 254 245 242 240 242 243 241 237 238 239 239 238 239 237 235 237 233 227 228 229 226 227 228 230 231 230 228 227 226 224 221 218 214 212 211 212 212 212 213 214 213 213 214
187 211 223 214 228 245 240 239 239 238 242 242 234 227 227 230 231 227 224 223 220 220 224 228 233 244 253 266 288 279 261 249 245 237 229 240 242 235 238 244 248 257 262 259 249 244 242 242 241 237 235 236 237 237 238 236 231 232 235 230 219 217 222 223 223 225 226 226 225 222 221 220 217 213 210 207 207 208 207 208 210 210 212 211 211 211
199 209 218 215 220 244 243 237 225 231 240 234 212 213 219 225 230 233 234 229 224 224 229 237 243 251 258 260 259 261 262 259 244 227 220 227 235 237 241 243 245 253 261 258 249 247 245 246 248 243 239 238 238 239 240 237 233 233 236 230 216 210 215 219 219 220 222 221 219 216 214 213 209 206 204 203 205 207 207 210 212 213 216 216 216 217
203 210 215 218 223 243 246 229 215 230 223 203 213 215 213 218 226 234 240 236 225 220 224 233 239 243 248 251 251 258 265 265 246 230 231 229 227 232 241 246 244 246 257 261 257 253 245 237 241 242 240 242 244 242 239 237 234 232 232 229 218 209 209 214 215 216 218 217 216 213 210 207 204 201 200 201 204 208 211 215 217 217 218 218 218 220
199 210 215 217 219 236 242 223 226 260 254 223 243 230 201 208 221 229 239 238 228 219 219 225 232 241 247 252 253 255 262 278 286 251 238 232 229 231 238 247 246 237 241 251 253 253 245 234 236 242 245 247 249 244 239 236 232 228 227 227 222 213 208 209 210 212 215 215 214 212 208 204 202 200 200 202 206 211 215 219 219 215 213 213 214 214
179 204 217 217 211 217 236 234 242 281 283 265 266 230 183 193 203 209 230 239 228 221 224 225 232 242 247 249 251 252 268 333 299 265 248 238 232 235 245 253 253 239 237 243 246 252 254 247 243 247 249 250 250 247 241 237 231 227 226 226 223 217 209 206 210 213 214 215 215 212 208 205 203 203 204 206 209 213 217 218 215 210 207 208 210 210
174 195 209 213 206 207 229 240 243 255 255 244 236 223 206 206 205 204 222 241 229 217 216 216 224 233 239 246 251 251 45 318 271 268 265 247 218 221 241 247 245 240 238 242 245 252 259 257 250 247 245 244 246 246 243 239 232 225 224 224 221 217 211 209 213 215 215 217 217 214 210 207 207 207 208 209 213 216 216 213 210 207 207 208 208 206
172 182 202 221 222 208 220 230 232 237 250 247 240 233 216 202 186 175 211 241 236 217 209 211 219 227 235 245 248 213 121 251 260 269 275 226 184 203 222 231 239 241 242 246 248 250 257 260 257 251 243 239 243 244 242 237 230 223 221 223 220 217 215 214 217 219 219 220 219 215 213 210 209 211 212 214 217 218 216 212 208 206 206 207 207 206
179 178 198 212 221 218 214 230 238 240 256 258 255 255 216 152 117 120 207 237 238 219 201 201 213 224 236 243 235 167 201 237 250 256 246 142 187 213 216 225 235 237 241 249 251 250 253 258 258 249 238 237 243 245 239 232 226 220 221 222 218 215 219 222 223 224 223 221 218 215 214 212 211 214 216 218 219 217 215 212 206 203 201 200 201 204
194 185 196 213 227 222 213 234 265 263 263 252 249 263 186 129 122 180 219 213 203 222 211 204 214 229 245 245 208 208 231 242 257 269 288 325 304 276 249 246 248 249 250 251 251 251 252 254 253 247 244 245 246 245 237 227 219 219 222 220 214 218 225 227 226 225 222 220 217 215 214 213 214 215 218 219 218 215 212 209 205 201 200 198 196 198
179 176 192 203 219 223 212 228 265 269 251 225 207 223 196 161 177 218 218 139 129 132 49 35 222 240 279 227 208 234 260 279 289 295 307 312 304 293 281 279 278 275 274 271 267 264 260 257 255 252 252 253 248 241 234 224 216 220 221 216 217 226 229 228 225 223 221 217 215 213 212 213 213 214 216 216 213 210 207 206 204 203 202 200 196 194
169 167 193 196 191 185 183 201 231 257 241 186 147 122 227 211 208 209 206 337 175 137 85 63 228 219 224 237 235 240 266 290 295 298 302 294 288 286 279 278 276 273 274 275 274 272 268 263 261 256 257 257 251 239 230 219 216 222 218 217 227 232 230 226 222 220 217 214 211 210 210 210 210 211 211 210 206 205 204 203 202 201 202 199 193 188
179 172 191 205 185 158 177 209 217 220 211 177 159 179 205 205 194 167 155 294 290 268 63 318 267 247 228 249 272 267 272 285 284 288 294 291 289 288 281 279 278 274 269 263 264 267 263 256 257 258 260 260 254 241 228 218 218 221 218 226 234 232 225 223 219 214 211 209 207 207 206 206 207 206 206 204 202 201 201 201 199 198 198 196 190 184
212 191 174 190 208 191 197 219 222 210 223 217 211 214 217 231 215 161 148 195 259 241 217 247 284 284 255 228 251 261 265 272 276 282 286 286 288 286 283 284 282 278 275 272 270 269 261 251 253 258 261 261 256 244 232 225 220 219 225 234 236 228 219 217 212 207 207 205 203 203 202 201 202 203 203 202 200 198 198 197 196 194 192 191 188 184
244 196 153 156 258 263 250 241 234 266 301 268 245 236 243 269 250 177 167 255 252 232 216 214 259 283 284 246 235 251 260 269 278 282 281 281 284 284 281 282 280 278 277 275 275 274 266 257 257 258 260 262 258 247 236 230 224 223 232 238 234 224 217 212 205 202 202 200 199 199 195 194 195 197 200 201 200 200 199 197 194 192 190 189 189 187
287 201 176 211 244 244 262 257 233 203 257 270 275 290 296 280 264 250 260 268 263 261 260 244 247 271 285 284 262 257 264 272 278 281 282 283 282 281 280 279 279 280 276 271 275 278 273 262 257 254 253 257 257 249 240 233 229 229 234 237 230 221 214 206 201 198 196 194 194 193 190 190 190 191 194 196 196 198 199 199 197 193 189 189 188 186
273 181 186 219 214 214 252 264 243 201 234 242 247 270 281 273 271 275 270 265 272 283 281 272 263 268 281 286 272 254 256 265 269 272 278 280 280 281 282 279 280 285 285 281 280 279 273 260 254 253 250 253 255 251 241 235 234 232 231 230 225 215 206 201 199 196 193 192 190 187 188 189 187 187 188 189 191 193 194 196 197 195 193 194 193 190
221 241 212 203 223 266 273 272 263 267 269 254 226 227 241 250 262 274 278 281 290 295 289 281 268 249 254 274 280 271 263 261 259 262 270 276 279 280 280 281 285 291 293 293 293 286 274 262 256 255 255 256 258 255 243 237 236 231 226 225 221 209 200 197 195 193 190 188 185 184 185 185 186 186 183 181 184 189 193 197 199 198 198 201 202 203
204 224 207 173 253 265 258 231 174 225 268 265 236 227 233 232 238 259 280 292 293 286 283 289 288 277 267 264 261 262 269 268 261 261 267 271 273 276 281 286 290 292 293 297 299 294 282 269 261 259 261 263 264 258 246 238 234 227 223 221 215 206 198 192 187 186 185 183 183 183 182 181 182 183 180 177 176 177 181 190 198 201 202 203 205 208
200 200 182 191 236 252 249 206 157 202 264 263 246 235 234 224 219 247 272 283 282 280 285 296 299 299 297 288 264 246 261 273 272 267 270 273 271 271 277 282 285 291 296 299 300 296 290 282 273 266 267 270 267 257 246 239 231 222 218 213 208 204 197 189 183 182 182 183 184 183 180 179 179 178 176 175 173 170 167 167 176 192 202 203 203 204